Location: Arcizac
(43.0933°N, 0.0112°E)
Time: 19:31:12
(UTC+00:00)

Cosmos 2026 Rocket - Pass Details

Date: 14 December 2019
Orbit: 940 x 1000 km, 82.9° (Epoch: 24 January)

Event Time Altitude Azimuth Distance (km) Brightness Sun altitude
Rises 17:42:09 0° 185° (S) 3,592 7.3 -13.5°
Reaches altitude 10° 17:44:37 10° 185° (S) 2,649 6.6 -13.9°
Maximum altitude 17:50:40 88° 97° (E) 948 3.9 -14.9°
Drops below altitude 10° 17:56:47 10° 8° (N) 2,672 6.0 -16.0°
Sets 17:59:17 0° 9° (N) 3,626 6.7 -16.4°
